TimeEDT,TemperatureF,Dew PointF,Humidity,Sea Level PressureIn,VisibilityMPH,Wind Direction,Wind SpeedMPH,Gust SpeedMPH,PrecipitationIn,Events,Conditions,WindDirDegrees,DateUTC
12:53 AM,57.9,46.0,65,30.17,10.0,Calm,Calm,-,N/A,,Clear,0,2013-09-06 04:53:00
1:53 AM,61.0,46.0,58,30.18,10.0,Calm,Calm,-,N/A,,Clear,0,2013-09-06 05:53:00
2:53 AM,57.0,46.9,69,30.19,10.0,Calm,Calm,-,N/A,,Clear,0,2013-09-06 06:53:00
3:53 AM,55.9,46.9,72,30.19,10.0,Calm,Calm,-,N/A,,Clear,0,2013-09-06 07:53:00
4:53 AM,57.0,44.1,62,30.20,10.0,Variable,5.8,-,N/A,,Clear,0,2013-09-06 08:53:00
5:53 AM,54.0,44.1,69,30.22,10.0,Calm,Calm,-,N/A,,Clear,0,2013-09-06 09:53:00
6:53 AM,51.1,44.1,77,30.24,10.0,Calm,Calm,-,N/A,,Clear,0,2013-09-06 10:53:00
7:53 AM,53.1,44.1,71,30.25,10.0,Calm,Calm,-,N/A,,Clear,0,2013-09-06 11:53:00
8:53 AM,57.9,41.0,53,30.26,10.0,Variable,3.5,-,N/A,,Clear,0,2013-09-06 12:53:00
9:53 AM,61.0,39.9,46,30.26,10.0,Variable,4.6,-,0.01,,Clear,0,2013-09-06 13:53:00
10:53 AM,63.0,39.9,43,30.26,10.0,Variable,4.6,-,N/A,,Clear,0,2013-09-06 14:53:00
11:53 AM,66.0,42.1,42,30.25,10.0,Calm,Calm,-,N/A,,Clear,0,2013-09-06 15:53:00
12:53 PM,68.0,43.0,40,30.23,10.0,Calm,Calm,-,N/A,,Clear,0,2013-09-06 16:53:00
2:53 PM,72.0,42.1,34,30.18,10.0,Calm,Calm,-,N/A,,Clear,0,2013-09-06 18:53:00
4:53 PM,73.0,39.9,30,30.15,10.0,Variable,3.5,-,N/A,,Clear,0,2013-09-06 20:53:00
5:53 PM,73.0,37.0,27,30.14,10.0,Calm,Calm,-,N/A,,Clear,0,2013-09-06 21:53:00
6:53 PM,68.0,39.9,36,30.15,10.0,Calm,Calm,-,N/A,,Clear,0,2013-09-06 22:53:00
7:53 PM,60.1,46.0,60,30.16,10.0,Calm,Calm,-,N/A,,Clear,0,2013-09-06 23:53:00
8:53 PM,55.9,45.0,67,30.17,10.0,Calm,Calm,-,N/A,,Clear,0,2013-09-07 00:53:00
9:53 PM,53.1,46.0,77,30.17,10.0,Calm,Calm,-,N/A,,Clear,0,2013-09-07 01:53:00
10:53 PM,52.0,46.0,80,30.17,10.0,SW,3.5,-,N/A,,Clear,230,2013-09-07 02:53:00